LOWLLOWI

Guest
Details From LOWL - Linz Hoersching
To LOWI - Innsbruck Kranebitten
Flight Number -
Tags decoded
Created
Modified
Stats Distance 131 nm / 243 km
Max Altitude 0 ft / 0 m
Waypoints 5
Social Downloads 6
Likes 0
Share VATSIM

Download

Looking for another format? Having issues loading an existing format? Contact us
Advertisement - Login to hide

Notes

Requested: LOWL SBG RTT AB LOWI

Route

LOWL SBG RTT AB LOWI

ID Type Via Altitude Latitude Longitude Leg Dist Tot Dist Heading (true) Name
O LOWL APT - 0 ft / 0 m 48.23322˚ 14.18751˚ - 0 nm - Linz Hoersching
SBG NDB - 0 ft / 0 m 47.96753˚ 12.89408˚ 54 nm 54 nm 253° / 252° SALZBURG NDB
RTT NDB - 0 ft / 0 m 47.43092˚ 11.94005˚ 50 nm 104 nm 230° / 230° RATTENBERG NDB
AB NDB - 0 ft / 0 m 47.29000˚ 11.50167˚ 19 nm 124 nm 245° / 244° Absam NDB
O LOWI APT - 0 ft / 0 m 47.26023˚ 11.34397˚ 6 nm 130 nm 255° / 254° Innsbruck Kranebitten

Altitude Profile

Advertisement - Login to hide

LOWL

Details ICAO LOWL (LNZ)
Name Linz Hoersching
Region Austria
Timezone Europe/Vienna (UTC+2.0)
Stats Elevation 978 ft / 298 m (AMSL)
Location 48.233219° 14.187513°
Runways 1
Magnetic Variation 3.778° E

METAR

LOWL 211520Z AUTO 09018KT 9999 NSC 22/08 Q1013 NOSIG

Decode

TAF

TAF LOWL 211115Z 2112/2212 09011KT CAVOK TEMPO 2112/2116 10017KT 9999 FEW050CB BECMG 2119/2121 08005KT

Decode

Departure Runways

ID Width Length Bearing (true) Bearing (mag) Surface Threshold Offset Overrun Length
09 197 ft / 60 m 9,802 ft / 2,988 m 86.49° 82.71° Asphalt 820 ft / 250 m 0 ft / 0 m
27 197 ft / 60 m 9,802 ft / 2,988 m 266.52° 262.74° Asphalt 492 ft / 150 m 0 ft / 0 m

LOWI

Details ICAO LOWI (INN)
Name Innsbruck Kranebitten
Region Austria
Timezone Europe/Vienna (UTC+2.0)
Stats Elevation 1,906 ft / 581 m (AMSL)
Location 47.260226° 11.343967°
Runways 1
Magnetic Variation 3.071° E

METAR

LOWI 211520Z VRB03KT 9999 FEW070 SCT120 24/04 Q1011 NOSIG

Decode

TAF

TAF TAF AMD LOWI 211402Z 2114/2212 27005KT 9999 FEW060 SCT100 TX23/2114Z TN11/2203Z PROB30 2114/2118 VRB15G25KT TSRA FEW050CB BKN070

Decode

Destination Runways

ID Width Length Bearing (true) Bearing (mag) Surface Threshold Offset Overrun Length
08 148 ft / 45 m 6,545 ft / 1,995 m 81.02° 77.95° Asphalt 338 ft / 103 m 0 ft / 0 m
26 148 ft / 45 m 6,545 ft / 1,995 m 261.04° 257.97° Asphalt 0 ft / 0 m 0 ft / 0 m

Approach Navaids

Runway Type Ident Frequency Range Bearing (true) Bearing (mag) Slope Elevation
26 Localiser OEV 111.10 MHz 27 nm / 50 km 256.00° 252.93° - 1,906 ft / 581 m (AMSL)
26 Localiser OEJ 109.70 MHz 30 nm / 56 km 69.00° 65.93° - 1,906 ft / 581 m (AMSL)
26 Glidescope OEV 111.10 MHz 18 nm / 33 km 256.00° 252.93° 3.80° 1,911 ft / 582 m (AMSL)
26 DME OEJ 109.70 MHz 30 nm / 56 km - - - 1,906 ft / 581 m (AMSL)
26 DME OEV 111.10 MHz 27 nm / 50 km - - - 1,911 ft / 582 m (AMSL)

Popular Alternatives